| time (UTC) | temp F | wind direction | speed MPH | gust MPH | rain 1hr in | rain 24hr in | rain mn in | humidity % | barometer mb |
| 20260505001554 | 50 | 140 | 5.0 | 9.0 | 0.00 | 0.00 | 0.00 | 77 | 1006.1 |
| 20260505000054 | 51 | 150 | 3.0 | 7.0 | 0.00 | 0.00 | 0.00 | 76 | 1006.1 |
| 20260504234557 | 51 | 133 | 3.0 | 9.0 | 0.00 | 0.00 | 0.00 | 75 | 1005.9 |
| 20260504233049 | 52 | 130 | 3.0 | 9.0 | 0.00 | 0.00 | 0.00 | 73 | 1005.5 |
| 20260504231600 | 53 | 140 | 2.0 | 6.0 | 0.00 | 0.00 | 0.00 | 72 | 1005.3 |
| 20260504230049 | 53 | 155 | 6.0 | 9.0 | 0.00 | 0.00 | 0.00 | 71 | 1005.2 |
| 20260504224546 | 52 | 146 | 4.0 | 10.0 | 0.00 | 0.00 | 0.00 | 74 | 1005.1 |
| 20260504223050 | 53 | 178 | 5.0 | 10.0 | 0.00 | 0.00 | 0.00 | 73 | 1005.0 |
| 20260504221558 | 53 | 196 | 5.0 | 10.0 | 0.00 | 0.00 | 0.00 | 73 | 1004.9 |
| 20260504220049 | 53 | 167 | 8.0 | 13.0 | 0.00 | 0.00 | 0.00 | 71 | 1004.9 |
| 20260504214548 | 52 | 158 | 6.0 | 10.0 | 0.00 | 0.00 | 0.00 | 75 | 1004.9 |
| 20260504194607 | 53 | 0 | 2.0 | 4.0 | 0.00 | 0.00 | 0.00 | 74 | 1004.9 |
| 20260504193058 | 52 | 0 | 2.0 | 5.0 | 0.00 | 0.00 | 0.00 | 73 | 1005.1 |
| 20260504191552 | 52 | 0 | 1.0 | 5.0 | 0.00 | 0.00 | 0.00 | 73 | 1005.1 |
| 20260504190125 | 52 | 144 | 3.0 | 5.0 | 0.00 | 0.00 | 0.00 | 73 | 1005.3 |
| 20260504184557 | 52 | 165 | 3.0 | 7.0 | 0.00 | 0.00 | 0.00 | 73 | 1005.4 |
| 20260504183047 | 52 | 134 | 3.0 | 5.0 | 0.00 | 0.00 | 0.00 | 73 | 1005.3 |
| 20260504181603 | 52 | 167 | 2.0 | 9.0 | 0.00 | 0.00 | 0.00 | 73 | 1005.2 |
| 20260504180138 | 51 | 178 | 10.0 | 13.0 | 0.00 | 0.00 | 0.00 | 74 | 1005.3 |
| 20260504174551 | 51 | 176 | 7.0 | 15.0 | 0.00 | 0.00 | 0.00 | 74 | 1005.3 |
| 20260504173059 | 50 | 182 | 13.0 | 18.0 | 0.00 | 0.00 | 0.00 | 75 | 1005.1 |
| 20260504171551 | 50 | 166 | 13.0 | 20.0 | 0.00 | 0.00 | 0.00 | 74 | 1005.1 |
| 20260504034552 | 44 | 259 | 1.0 | 6.0 | 0.00 | 0.01 | 0.01 | 67 | 1007.2 |
| 20260504033050 | 45 | 261 | 3.0 | 6.0 | 0.00 | 0.01 | 0.01 | 65 | 1007.1 |
| 20260504031617 | 45 | 306 | 2.0 | 7.0 | 0.00 | 0.01 | 0.01 | 63 | 1007.0 |
| 20260504030050 | 45 | 278 | 2.0 | 6.0 | 0.00 | 0.01 | 0.01 | 62 | 1007.0 |
| 20260504024550 | 45 | 291 | 1.0 | 7.0 | 0.00 | 0.01 | 0.01 | 61 | 1007.0 |
| 20260504023049 | 46 | 273 | 5.0 | 8.0 | 0.00 | 0.01 | 0.01 | 60 | 1007.0 |
| 20260504021602 | 46 | 279 | 3.0 | 6.0 | 0.00 | 0.01 | 0.01 | 56 | 1007.0 |
| 20260504020052 | 47 | 308 | 4.0 | 11.0 | 0.00 | 0.01 | 0.01 | 56 | 1006.9 |
| 20260504014549 | 47 | 322 | 4.0 | 11.0 | 0.00 | 0.01 | 0.01 | 56 | 1006.8 |
| 20260504013051 | 47 | 336 | 6.0 | 17.0 | 0.00 | 0.01 | 0.01 | 54 | 1006.7 |
| 20260504011553 | 47 | 306 | 8.0 | 15.0 | 0.00 | 0.01 | 0.01 | 54 | 1006.6 |
| 20260504010057 | 48 | 306 | 7.0 | 17.0 | 0.00 | 0.01 | 0.01 | 53 | 1006.1 |